Home > Time Zones > World Clock > Weather > Serbia > Niš > Past weeks

Flag for Serbia Weather past 2 weeks in Niš, Serbia

41 °F

Partly sunny.

Feels Like: 35 °F
Forecast: 24 / 47 °F
Wind: 9 mph from West

Location: Nis Airport

Current Time: Nov 29, 2015 at 12:16:16 PM

Latest Report: Nov 29, 2015 at 11:30 AM

Visibility: N/A

Pressure: 30.21 "Hg

Humidity: 76%

Dew point: 34 °F

Location of NišLocation

Historic Weather in Niš — Graph


Niš temperature yesterday

Maximum temperature yesterday: 39 °F (at 11:30 AM)
Minimum temperature yesterday: 34 °F (at 12:00 AM)
Average temperature yesterday: 36 °F

Past Weeks' High & Low Weather Summary

High70 °F (Nov 17, 2:30 PM)100% (Nov 22, 9:00 AM)30.33 "Hg (Nov 22, 9:00 AM)
Low32 °F (Nov 15, 3:30 AM)31% (Nov 17, 2:30 PM)29.24 "Hg (Nov 21, 10:00 PM)
Average46 °F77%29.95 "Hg
* Reported Nov 14 11:00 AM — Nov 29 11:00 AM, Niš, Weather by CustomWeather, © 2015

Note: Actual official high and low records may vary slightly from our data, if they occured in-between our weather recording intervals... More about our weather records


Niš weather history for previous 24 hours

Time TempWeatherWind HumidityBarometerVisibility
11:00 AM
Sun, Nov 29
41 °FPartly sunny.12 mph76%30.21 "HgN/A
10:30 AM41 °FPartly sunny.12 mph76%30.18 "HgN/A
10:00 AM41 °FPartly sunny.9 mph76%30.18 "HgN/A
9:30 AM41 °FPartly sunny.14 mph76%30.18 "HgN/A
9:00 AM41 °FPartly sunny.10 mph76%30.18 "HgN/A
8:30 AM41 °FPartly sunny.8 mph76%30.15 "HgN/A
8:00 AM39 °FPartly sunny.3 mph81%30.15 "HgN/A
7:30 AM39 °FPartly sunny.2 mph81%30.15 "HgN/A
7:00 AM39 °FPartly sunny.3 mph81%30.12 "HgN/A
6:00 AM39 °FPartly cloudy.3 mph81%30.12 "HgN/A
5:30 AM39 °FPartly cloudy.3 mph81%30.12 "HgN/A
4:30 AM37 °FPartly cloudy.3 mph87%30.09 "HgN/A
4:00 AM39 °FPartly cloudy.2 mph75%30.09 "HgN/A
3:30 AM39 °FPartly cloudy.6 mph81%30.09 "HgN/A
3:00 AM37 °FPartly cloudy.5 mph87%30.09 "HgN/A
2:30 AM37 °FPartly cloudy.5 mph87%30.09 "HgN/A
2:00 AM37 °FLight rain. Partly cloudy.6 mph87%30.09 "HgN/A
1:30 AM37 °FLight rain. Partly cloudy.5 mph87%30.09 "HgN/A
1:00 AM37 °FLight rain. Partly cloudy.5 mph87%30.09 "HgN/A
12:00 AM37 °FLight rain. Partly cloudy.2 mph93%30.07 "HgN/A
11:00 PM
Sat, Nov 28
37 °FPartly cloudy.1 mph93%30.04 "HgN/A
10:30 PM36 °FPartly cloudy.No wind100%30.04 "HgN/A
9:30 PM36 °FPartly cloudy.1 mph93%30.01 "HgN/A
9:00 PM36 °FPartly cloudy.No wind93%30.01 "HgN/A
8:30 PM36 °FPartly cloudy.1 mph93%30.01 "HgN/A
8:00 PM37 °FPartly cloudy.1 mph87%29.98 "HgN/A
7:30 PM36 °FPartly cloudy.2 mph93%29.98 "HgN/A
7:00 PM36 °FPartly cloudy.No wind93%29.98 "HgN/A
6:30 PM36 °FPartly cloudy.2 mph93%29.95 "HgN/A
6:00 PM36 °FPartly cloudy.1 mph93%29.95 "HgN/A
5:30 PM36 °FPartly cloudy.No wind93%29.92 "HgN/A
5:00 PM37 °FLight rain. Partly cloudy.1 mph87%29.92 "HgN/A
4:30 PM37 °FLight rain. Partly cloudy.3 mph87%29.92 "HgN/A
4:00 PM37 °FLight rain. Partly cloudy.6 mph87%29.89 "HgN/A
3:30 PM39 °FLight rain. Partly sunny.5 mph81%29.89 "HgN/A
3:00 PM39 °FLight rain. Partly sunny.6 mph81%29.89 "HgN/A
2:30 PM39 °FBroken clouds.6 mph75%29.89 "HgN/A
2:00 PM39 °FBroken clouds.8 mph75%29.89 "HgN/A
1:30 PM39 °FLight rain. Partly sunny.8 mph81%29.86 "HgN/A
1:00 PM39 °FBroken clouds.9 mph81%29.86 "HgN/A
12:30 PM39 °FBroken clouds.7 mph81%29.86 "HgN/A
12:00 PM39 °FLight rain. Partly sunny.7 mph81%29.86 "HgN/A
Weather by CustomWeather, © 2015

See weather overviewHow to use our weather pages